Content
SEND FEEDBACK

Daily
Averages
Monthly
Summary
Serbia

KRUSEVAC, SERBIA


Home > Europe > Serbia
Elevation: 545 feet     Latitude: 43 34N     Longitude: 021 21E

WEATHER
 
SELECT A DAY
Number of Records: 263,083;   Date Range: 1/10/97 - 7/7/14
 
SHARE

PRINT THIS DATA

[ ← Previous Day ]
WEATHER ALMANAC - FEBRUARY 13, 2013
[ Next Day → ]
[ °C ]   °F
Weather ElementAverageHighLow
Temperature45.1 °F46.4 °F (9:00 am)42.8 °F (2:00 am)
Dewpoint34.8 °F37.4 °F (3:30 pm)32 °F (12:30 am)
Humidity66 %76 % (3:30 pm)54 % (1:00 am)
Barometer29.89 in29.95 in (11:30 pm)29.86 in (6:00 am)
Wind Speed17.2 mph24.2 mph (8:00 am)
Weather ElementAverage
Visibility7.1 mi
Wind DirectionENE (79.3 °)

Weather ElementTotal
Precipitation---
Heating Degree Days20.4 (Base 65)
Averaged from 55 records on February 13, 2013
WEATHER CONDITIONS BREAKOUT
WIND DIRECTION BREAKOUT
WEATHER BY HOUR - FEBRUARY 13, 2013
[ °C ]   °F
Local TimeTemperatureDewpointHumidityBarometerVisibilityWind DirectionWind SpeedGust SpeedPrecipitationEventsConditions
12:30 AM44.6 °F32.0 °F61 %29.92 in6.2 miEast (80°)19.6 mphPartly Cloudy
1:00 AM43.0 °F32.0 °F54 %29.94 in12.0 miENE (60°)6.7 mphPartly Cloudy
1:00 AM44.6 °F32.0 °F61 %29.92 in6.2 miEast (90°)19.6 mphPartly Cloudy
1:30 AM44.6 °F32.0 °F61 %29.92 in6.2 miEast (90°)21.9 mphPartly Cloudy
2:00 AM42.8 °F32.0 °F66 %29.92 inEast (90°)20.7 mphClear
2:30 AM42.8 °F32.0 °F66 %29.92 inEast (90°)20.7 mphClear
3:00 AM44.6 °F33.8 °F66 %29.89 in6.2 miEast (90°)19.6 mphPartly Cloudy
3:30 AM44.6 °F33.8 °F66 %29.89 in6.2 miEast (90°)19.6 mphPartly Cloudy
4:00 AM44.0 °F34.0 °F57 %29.92 in12.0 miENE (70°)11.2 mphMostly Cloudy
4:00 AM44.6 °F33.8 °F66 %29.89 in6.2 miEast (90°)21.9 mphScattered Clouds
4:30 AM44.6 °F33.8 °F66 %29.89 in6.2 miEast (80°)20.7 mphScattered Clouds
5:00 AM44.6 °F33.8 °F66 %29.89 in6.2 miEast (80°)19.6 mphScattered Clouds
5:30 AM42.8 °F32.0 °F66 %29.89 in6.2 miEast (80°)21.9 mphScattered Clouds
6:00 AM42.8 °F33.8 °F70 %29.86 in6.2 miEast (80°)19.6 mphScattered Clouds
6:30 AM42.8 °F33.8 °F70 %29.86 in6.2 miEast (80°)20.7 mphScattered Clouds
7:00 AM43.0 °F34.0 °F61 %29.90 in12.0 miENE (70°)8.9 mphOvercast
7:00 AM44.6 °F33.8 °F66 %29.86 in6.2 miEast (90°)20.7 mphScattered Clouds
7:30 AM44.6 °F33.8 °F66 %29.89 in6.2 miEast (90°)21.9 mphScattered Clouds
8:00 AM44.6 °F33.8 °F66 %29.89 in6.2 miEast (90°)24.2 mphScattered Clouds
8:30 AM44.6 °F33.8 °F66 %29.89 in6.2 miEast (80°)19.6 mphMostly Cloudy
9:00 AM46.4 °F35.6 °F66 %29.89 in6.2 miEast (90°)18.4 mphMostly Cloudy
9:30 AM44.6 °F33.8 °F66 %29.89 in6.2 miENE (70°)21.9 mphMostly Cloudy
10:00 AM44.0 °F35.0 °F61 %29.90 in12.0 miENE (60°)4.5 mphOvercast
10:00 AM42.8 °F33.8 °F70 %29.89 in6.2 miENE (70°)20.7 mphMostly Cloudy
10:30 AM44.6 °F33.8 °F66 %29.89 in6.2 miENE (70°)20.7 mphMostly Cloudy
11:00 AM46.4 °F35.6 °F66 %29.89 in6.2 miEast (80°)19.6 mphMostly Cloudy
11:30 AM44.6 °F35.6 °F71 %29.86 in6.2 miEast (80°)19.6 mphMostly Cloudy
12:00 PM46.4 °F35.6 °F66 %29.86 in6.2 miENE (60°)16.1 mphMostly Cloudy
12:30 PM46.4 °F33.8 °F62 %29.86 in6.2 miEast (80°)21.9 mphMostly Cloudy
1:00 PM46.0 °F35.0 °F56 %29.88 in12.0 miNE (50°)11.2 mphOvercast
1:00 PM46.4 °F33.8 °F62 %29.86 in6.2 miEast (80°)21.9 mphMostly Cloudy
1:30 PM44.6 °F33.8 °F66 %29.86 in6.2 miENE (60°)17.3 mphMostly Cloudy
2:00 PM44.6 °F33.8 °F66 %29.86 in6.2 miENE (60°)15.0 mphMostly Cloudy
2:30 PM44.6 °F33.8 °F66 %29.86 in6.2 miENE (60°)18.4 mphMostly Cloudy
3:00 PM46.4 °F35.6 °F66 %29.86 in6.2 miEast (80°)17.3 mphRainLight Rain
3:30 PM44.6 °F37.4 °F76 %29.86 in6.2 miENE (70°)17.3 mphScattered Clouds
4:00 PM45.0 °F37.0 °F66 %29.88 in12.0 miNE (50°)11.2 mphRainLight Rain
4:00 PM46.4 °F37.4 °F71 %29.86 in6.2 miEast (80°)19.6 mphScattered Clouds
4:30 PM46.4 °F35.6 °F66 %29.86 in6.2 miEast (80°)20.7 mphScattered Clouds
5:00 PM46.4 °F35.6 °F66 %29.86 in6.2 miEast (80°)17.3 mphScattered Clouds
5:30 PM46.4 °F35.6 °F66 %29.86 in6.2 miEast (80°)20.7 mphMostly Cloudy
6:00 PM46.4 °F35.6 °F66 %29.86 in6.2 miEast (80°)17.3 mphScattered Clouds
6:30 PM46.4 °F35.6 °F66 %29.89 in6.2 miEast (80°)15.0 mphScattered Clouds
7:00 PM46.0 °F37.0 °F61 %29.90 in12.0 miENE (60°)6.7 mphMostly Cloudy
7:00 PM46.4 °F35.6 °F66 %29.89 in6.2 miEast (80°)16.1 mphPartly Cloudy
7:30 PM46.4 °F35.6 °F66 %29.89 in6.2 miEast (90°)16.1 mphPartly Cloudy
8:00 PM46.4 °F37.4 °F71 %29.89 in6.2 miEast (90°)16.1 mphPartly Cloudy
8:30 PM46.4 °F37.4 °F71 %29.89 in6.2 miEast (90°)18.4 mphPartly Cloudy
9:00 PM46.4 °F37.4 °F71 %29.92 in6.2 miEast (90°)16.1 mphPartly Cloudy
9:30 PM46.4 °F37.4 °F71 %29.92 in6.2 miEast (100°)16.1 mphPartly Cloudy
10:00 PM46.0 °F37.0 °F62 %29.93 in12.0 miENE (60°)6.7 mphMostly Cloudy
10:00 PM46.4 °F37.4 °F71 %29.92 in6.2 miEast (90°)12.7 mphPartly Cloudy
10:30 PM46.4 °F37.4 °F71 %29.92 in6.2 miEast (100°)13.8 mphPartly Cloudy
11:00 PM46.4 °F37.4 °F71 %29.92 in6.2 miEast (100°)12.7 mphPartly Cloudy
11:30 PM46.4 °F37.4 °F71 %29.95 in6.2 miEast (100°)12.7 mphPartly Cloudy
Hourly data recorded from LYNI, located miles away from Krusevac, Serbia







STORIES FROM OUR PARTNERS